GW6708 Weather Reports


Display with metric or nautical units.
time (UTC)temp
F
wind
direction
speed
MPH
gust
MPH
rain 1hr
in
rain 24hr
in
rain mn
in
humidity
%
barometer
mb
20260506160121 81 170 1.0 3.0 0.00 0.00 0.00 82 1011.1
20260506155121 79 176 2.0 4.0 0.00 0.00 0.00 85 1011.1
20260506154125 79 191 0.0 2.0 0.00 0.00 0.00 86 1010.9
20260506153121 78 174 1.0 2.0 0.00 0.00 0.00 87 1010.9
20260506152121 78 180 1.0 2.0 0.00 0.00 0.00 86 1010.8
20260506151121 78 111 1.0 2.0 0.00 0.00 0.00 87 1010.7
20260506150121 77 209 0.0 2.0 0.00 0.00 0.00 88 1010.7
20260506145121 77 109 0.0 2.0 0.00 0.00 0.00 89 1010.8
20260506144121 77 97 0.0 2.0 0.00 0.00 0.00 89 1010.7
20260506143126 77 349 1.0 2.0 0.00 0.00 0.00 89 1010.5
20260506142126 77 164 1.0 3.0 0.00 0.00 0.00 89 1010.4
20260506141122 77 172 1.0 2.0 0.00 0.00 0.00 89 1010.3
20260506140123 77 116 1.0 3.0 0.00 0.00 0.00 89 1010.3
20260506135121 77 140 1.0 4.0 0.00 0.00 0.00 89 1010.1
20260506134121 77 115 1.0 4.0 0.00 0.00 0.00 89 1010.0
20260506133121 77 140 2.0 3.0 0.00 0.00 0.00 89 1009.9
20260506132127 77 179 1.0 4.0 0.00 0.00 0.00 90 1009.9
20260506131142 76 174 2.0 4.0 0.00 0.00 0.00 91 1009.8
20260506130142 76 168 2.0 4.0 0.00 0.00 0.00 92 1009.8
20260506125122 76 144 2.0 3.0 0.00 0.00 0.00 92 1009.8
20260506124121 75 110 1.0 3.0 0.00 0.00 0.00 92 1009.8
20260506123121 75 147 1.0 3.0 0.00 0.00 0.00 92 1009.9
20260506122121 75 134 1.0 2.0 0.00 0.00 0.00 92 1009.9
20260506121121 75 169 1.0 2.0 0.00 0.00 0.00 92 1009.9
20260506120142 75 141 1.0 4.0 0.00 0.00 0.00 92 1009.9
20260506115121 75 168 0.0 2.0 0.00 0.00 0.00 92 1009.8
20260506114142 75 140 1.0 3.0 0.00 0.00 0.00 92 1009.7
20260506113122 75 166 0.0 2.0 0.00 0.00 0.00 91 1009.7
20260506112121 75 178 2.0 3.0 0.00 0.00 0.00 91 1009.7
20260506111142 75 178 1.0 2.0 0.00 0.00 0.00 91 1009.7
20260506110121 76 158 1.0 3.0 0.00 0.00 0.00 91 1009.7
20260506105121 76 175 1.0 3.0 0.00 0.00 0.00 91 1009.6
20260506104121 76 186 1.0 3.0 0.00 0.00 0.00 91 1009.6
20260506103124 76 156 1.0 4.0 0.00 0.00 0.00 90 1009.5
20260506102121 76 174 1.0 3.0 0.00 0.00 0.00 90 1009.6
20260506101121 76 141 1.0 4.0 0.00 0.00 0.00 90 1009.6
20260506100121 76 203 1.0 3.0 0.00 0.00 0.00 90 1009.5
20260506095121 76 184 0.0 3.0 0.00 0.00 0.00 90 1009.6
20260506094121 76 183 1.0 3.0 0.00 0.00 0.00 90 1009.6
20260506093121 76 181 2.0 5.0 0.00 0.00 0.00 90 1009.4
20260506092121 76 186 2.0 5.0 0.00 0.00 0.00 89 1009.4
20260506091121 76 186 2.0 6.0 0.00 0.00 0.00 89 1009.5
20260506090125 76 211 1.0 4.0 0.00 0.00 0.00 89 1009.5
20260506085121 76 167 2.0 5.0 0.00 0.00 0.00 89 1009.5
20260506084121 76 178 2.0 4.0 0.00 0.00 0.00 89 1009.5
20260506083121 76 180 2.0 7.0 0.00 0.00 0.00 89 1009.5
20260506082143 76 158 2.0 4.0 0.00 0.00 0.00 89 1009.5
20260506081142 76 208 3.0 6.0 0.00 0.00 0.00 89 1009.6
20260506080121 76 187 2.0 4.0 0.00 0.00 0.00 89 1009.6
20260506073121 76 164 2.0 4.0 0.00 0.00 0.00 89 1009.7
20260506072121 77 164 2.0 4.0 0.00 0.00 0.00 89 1009.8
20260506071143 77 178 1.0 3.0 0.00 0.00 0.00 89 1009.8
20260506070122 77 189 2.0 5.0 0.00 0.00 0.00 89 1009.8
20260506062121 77 175 2.0 4.0 0.00 0.00 0.00 89 1009.8
20260506061121 77 183 2.0 4.0 0.00 0.00 0.00 89 1009.8
20260506060122 77 162 2.0 4.0 0.00 0.00 0.00 88 1009.8
20260506051126 77 179 3.0 5.0 0.00 0.00 0.00 88 1009.7
20260506050121 77 120 3.0 5.0 0.00 0.00 0.00 88 1009.8
20260506044121 77 99 2.0 6.0 0.00 0.00 0.00 88 1009.9
20260506043121 77 172 2.0 3.0 0.00 0.00 0.00 87 1009.7
20260506042121 77 169 2.0 5.0 0.00 0.00 0.00 87 1009.8
20260506041121 78 155 3.0 4.0 0.00 0.00 0.00 87 1009.7
20260506040122 78 165 2.0 5.0 0.00 0.00 0.00 87 1009.7
20260506035147 78 162 2.0 4.0 0.00 0.00 0.00 87 1009.7
20260506034121 78 163 3.0 6.0 0.00 0.00 0.00 86 1009.6
20260506033122 78 138 3.0 5.0 0.00 0.00 0.00 86 1009.5
20260506032122 78 160 3.0 5.0 0.00 0.00 0.00 85 1009.6
20260506031121 79 145 3.0 6.0 0.00 0.00 0.00 84 1009.5
20260506030121 79 113 4.0 7.0 0.00 0.00 0.00 83 1009.5
20260506025121 80 144 4.0 6.0 0.00 0.00 0.00 82 1009.3
20260506024121 80 194 4.0 5.0 0.00 0.00 0.00 82 1009.3
20260506023126 81 110 3.0 5.0 0.00 0.00 0.00 81 1009.3
20260506022121 81 80 3.0 4.0 0.00 0.00 0.00 79 1009.3
20260506021121 82 135 3.0 4.0 0.00 0.00 0.00 77 1009.1
20260506020122 82 126 3.0 5.0 0.00 0.00 0.00 76 1009.1
20260506015121 83 125 3.0 6.0 0.00 0.00 0.00 73 1009.0
20260506014122 83 147 2.0 4.0 0.00 0.00 0.00 72 1008.9
20260506013121 83 164 2.0 3.0 0.00 0.00 0.00 71 1008.8
20260506012126 84 163 2.0 4.0 0.00 0.00 0.00 71 1008.7
20260506011121 84 189 2.0 5.0 0.00 0.00 0.00 70 1008.6
20260506010121 85 111 2.0 4.0 0.00 0.00 0.00 69 1008.6
20260506005122 85 107 2.0 4.0 0.00 0.00 0.00 68 1008.5
20260506004121 86 161 2.0 3.0 0.00 0.00 0.00 67 1008.6
20260506003121 86 159 3.0 5.0 0.00 0.00 0.00 65 1008.5
20260506002121 87 167 2.0 4.0 0.00 0.00 0.00 64 1008.5
20260506001121 88 193 2.0 4.0 0.00 0.00 0.00 64 1008.4
20260506000125 88 165 1.0 2.0 0.00 0.00 0.00 62 1008.4
20260505235121 89 166 1.0 4.0 0.00 0.00 0.00 61 1008.3
20260505234143 90 203 2.0 4.0 0.00 0.00 0.00 60 1008.4
20260505233121 90 172 1.0 4.0 0.00 0.00 0.00 60 1008.4
20260505232122 90 181 1.0 4.0 0.00 0.00 0.00 61 1008.3
20260505231121 88 155 1.0 3.0 0.00 0.00 0.00 62 1008.3
20260505230122 89 153 3.0 5.0 0.00 0.00 0.00 59 1008.3
20260505225121 93 179 1.0 4.0 0.00 0.00 0.00 56 1008.4
20260505224122 89 177 2.0 4.0 0.00 0.00 0.00 60 1008.3
20260505223121 87 152 2.0 4.0 0.00 0.00 0.00 64 1008.4
20260505222121 87 171 2.0 4.0 0.00 0.00 0.00 63 1008.5
20260505221121 88 183 2.0 4.0 0.00 0.00 0.00 61 1008.5
20260505220121 88 194 2.0 4.0 0.00 0.00 0.00 61 1008.5
20260505215121 89 202 2.0 6.0 0.00 0.00 0.00 60 1008.6
20260505214121 87 169 2.0 5.0 0.00 0.00 0.00 63 1008.7
20260505213121 87 194 3.0 6.0 0.00 0.00 0.00 62 1008.8
20260505212122 87 154 3.0 5.0 0.00 0.00 0.00 63 1008.9
20260505211122 88 121 3.0 4.0 0.00 0.00 0.00 61 1009.0
20260505210126 89 189 2.0 4.0 0.00 0.00 0.00 60 1009.1
20260505205122 90 181 3.0 5.0 0.00 0.00 0.00 59 1009.1
20260505204121 89 145 3.0 5.0 0.00 0.00 0.00 60 1009.2
20260505203121 89 214 2.0 4.0 0.00 0.00 0.00 61 1009.4
20260505202142 89 196 2.0 5.0 0.00 0.00 0.00 62 1009.5
20260505201121 88 220 2.0 5.0 0.00 0.00 0.00 61 1009.5
20260505200121 90 198 2.0 4.0 0.00 0.00 0.00 60 1009.5
20260505195121 87 122 2.0 4.0 0.00 0.00 0.00 63 1009.5
20260505194125 89 177 2.0 4.0 0.00 0.00 0.00 61 1009.6
20260505193122 90 178 2.0 3.0 0.00 0.00 0.00 61 1009.6
20260505192121 88 177 2.0 4.0 0.00 0.00 0.00 61 1009.8
20260505191122 87 175 3.0 6.0 0.00 0.00 0.00 65 1009.9
20260505190122 86 206 2.0 5.0 0.00 0.00 0.00 66 1009.9
20260505185121 87 209 2.0 4.0 0.00 0.00 0.00 64 1010.0
20260505184124 86 188 2.0 3.0 0.00 0.00 0.00 66 1010.1
20260505183125 85 202 2.0 3.0 0.00 0.00 0.00 68 1010.2
20260505182121 84 195 2.0 4.0 0.00 0.00 0.00 70 1010.1
20260505181122 84 168 1.0 2.0 0.00 0.00 0.00 69 1010.1
20260505180121 85 198 2.0 3.0 0.00 0.00 0.00 69 1010.1
20260505175142 82 131 3.0 6.0 0.00 0.00 0.00 73 1010.2
20260505174143 83 159 2.0 4.0 0.00 0.00 0.00 70 1010.2
20260505173142 82 225 2.0 3.0 0.00 0.00 0.00 73 1010.3
20260505172122 83 228 2.0 4.0 0.00 0.00 0.00 73 1010.3
20260505171143 82 197 2.0 4.0 0.00 0.00 0.00 74 1010.3
20260505170146 80 189 2.0 4.0 0.00 0.00 0.00 77 1010.3
20260505165122 80 215 1.0 3.0 0.00 0.00 0.00 77 1010.2
20260505164121 80 199 1.0 3.0 0.00 0.00 0.00 78 1010.3
20260505163121 79 202 2.0 3.0 0.00 0.00 0.00 80 1010.3
20260505162143 78 205 2.0 3.0 0.00 0.00 0.00 81 1010.3
20260505161122 77 201 1.0 3.0 0.00 0.00 0.00 84 1010.3